Regional Weather Roundup
Issued by NWS Upton, NY

Current Version | Previous Version | Text Only | Print | Product List | Glossary On
Versions: 1 2 3 4 5 6 7 8 9 10 11 12 13 14 15 16 17 18 19 20 21 22 23 24 25 26 27 28 29 30 31 32 33 34 35 36 37 38 39 40 41 42 43 44 45 46 47 48 49 50
000
ASUS41 KOKX 252209
RWROKX

REGIONAL WEATHER ROUNDUP
NATIONAL WEATHER SERVICE NEW YORK NY
600 PM EDT SUN JUN 25 2017

NOTE: "FAIR" INDICATES FEW OR NO CLOUDS BELOW 12,000 FEET WITH NO
SIGNIFICANT WEATHER AND/OR OBSTRUCTIONS TO VISIBILITY.

NYZ071-072-176-178-NJZ106-104-252300-
NEW YORK CITY METRO AREA

CITY           SKY/WX    TMP DP  RH WIND       PRES   REMARKS
Central Park   PTSUNNY   78  60  53 CALM      29.95S
Bronx Bot Gard   N/A     79  57  47 SE12      29.94R
LaGuardia APRT PTSUNNY   79  59  50 S9        29.91F
Kennedy INTL   PTSUNNY   76  64  66 S12       29.93S
Breezy Point     N/A     68 N/A N/A S14         N/A
Newark/Liberty PTSUNNY   81  60  48 NE7       29.91S
Teterboro      MOSUNNY   80  58  46 S5        29.90S
$$

NYZ177-179-078>081-252300-
LONG ISLAND NEW YORK

CITY           SKY/WX    TMP DP  RH WIND       PRES   REMARKS
Jones Beach      N/A     72 N/A N/A S7          N/A
Matinecock PT  NOT AVBL
Farmingdale    NOT AVBL
MacArthur/ISP  PTSUNNY   78  58  49 SW10      29.93S
Shirley        SUNNY     77  58  51 SW8       29.94S
Mt Sinai Harb    N/A    N/A N/A N/A CALM        N/A
Westhampton    SUNNY     76  54  46 SW8       29.95F
East Hampton   FAIR      75  56  51 SW8       29.93S
Montauk          N/A     76  56  49 SW7       29.94F
$$

NYZ052-065-067-252300-
HUDSON VALLEY

CITY           SKY/WX    TMP DP  RH WIND       PRES   REMARKS
White Plains   NOT AVBL
Larchmont Harb   N/A     73 N/A N/A S8          N/A
Croton O-T Hud   N/A     75 N/A N/A S6          N/A
Newburgh       MOSUNNY   77  77 100 W12       29.92F
Montgomery     PTSUNNY   80  58  46 W14       29.90S
Poughkeepsie   MOSUNNY   78  58  49 SW6       29.89S
Albany         PTSUNNY   77  51  40 W12       29.88F
$$

NJZ001-105-106-008-010-013-015-019>022-104-252300-
NEW JERSEY

CITY           SKY/WX    TMP DP  RH WIND       PRES   REMARKS
Newark/Liberty PTSUNNY   81  60  48 NE7       29.91S
Teterboro      MOSUNNY   80  58  46 S5        29.90S
Caldwell       MOSUNNY   80  61  52 S5        29.92F
Somerville     SUNNY     81  58  45 W3        29.90S
Linden         FAIR      84  52  33 NW9G16    29.91S
Perth Amboy      N/A     81 N/A N/A W14G20      N/A
Sussex         SUNNY     80  55  42 VRB6      29.92S
Andover          N/A     80  54  40 VRB3      29.93S
Trenton        MOSUNNY   83  55  38 W6        29.91F
Millville      SUNNY     80  64  58 VRB3      29.94S
Atlantic City  NOT AVBL
Wrightstown    MOSUNNY   84  57  39 W13       29.92S
Toms River     MOSUNNY   80  60  50 S8        29.93S
Belmar         PTSUNNY   76  61  59 SE7       29.94S
$$

PAZ047>061-062-071-252300-
EASTERN PENNSYLVANIA

CITY           SKY/WX    TMP DP  RH WIND       PRES   REMARKS
Philadelphia   PTSUNNY   84  56  38 W14G20    29.93F
Allentown      MOSUNNY   80  49  33 W14       29.93S
Scranton       SUNNY     79  47  32 SW14G21   29.93F
$$

CTZ002-004>006-009-010-012-RIZ004-006-007-MAZ004-011-015-252300-
SOUTHERN NEW ENGLAND
 IN CT

CITY           SKY/WX    TMP DP  RH WIND       PRES   REMARKS
Bradley INTL   MOSUNNY   77  61  57 S10       29.89F
Hartford       MOSUNNY   79  58  48 S14       29.88F
Danbury        SUNNY     77  58  51 SW9       29.93S
Wtrbury/Oxford MOSUNNY   75  55  50 W5        29.94S
Bridgeport     MOSUNNY   76  61  59 S5        29.92S
Meriden        MOSUNNY   77  59  53 S9        29.91F
New Haven      PTSUNNY   73  64  73 S5        29.92F
Chester        FAIR      75  59  57 SW9       29.93F
Groton         CLOUDY    72  59  63 SW9       29.91F
Wilimantic     CLOUDY    74  59  59 SW6       29.91F

 IN RI

CITY           SKY/WX    TMP DP  RH WIND       PRES   REMARKS
Providence     CLOUDY    74  59  59 NW18G30   29.93R
Block Island   SUNNY     74  56  53 SW13      29.93F
Westerly       PTSUNNY   76  58  53 SW9       29.93S
 IN MA

CITY           SKY/WX    TMP DP  RH WIND       PRES   REMARKS
Boston         CLOUDY    79  52  38 W8        29.87S
Worcester      MOSUNNY   73  56  54 S9        29.92R
Westfield      SUNNY     80  55  42 SW10      28.88F
Provincetown   CLOUDY    72  57  59 SW14      29.89S
Nantucket      MOSUNNY   68  62  81 S7        29.93S
$$

ANZ330-335-338-340-345-350-353-355-252300-
COASTAL MARINE OBSERVATIONS


STATION/POSITION TIME  SKY/WX   TEMP    WIND        PRES    VSBY  WAVE
                                AIR SEA DIR/SP/G                  HT/PER
                 (UTC)          (F)     (DEG/KT/KT) (MB)    (MI)  (FT/S)
NY HARB ENTRANCE 2050            71 68  170/ 12/ 14 1013.2          2/ 7
20 S FIRE ISLAND 2050            72 72  170/ 10/ 12 1013.2          3/ 8
GREAT SOUTH BAY  2115            73 77  210/ 12/ 14   N/A
23 SSW MONTAUK P 2050            70 67              1014.0          3/ 7
15 E BARNEGAT LI 2130               67                N/A           3/ 8
HUDSON CANYON    2050            70 69  160/  6/  6 1014.2          3/ 8
KINGS POINT      2130            75 69  200/ 11/ 13 1013.0
EXECUTION ROCKS  2130            74     180/  6/  8   N/A
CENTRAL LI SOUND NOT AVBL
EASTERN LI SOUND NOT AVBL
ROBBINS REEF     2124                   150/ 12/ 13 1013.6
$$


>>>>>>>>>>>>>>>>>>>>>>>>>>>> KEY <<<<<<<<<<<<<<<<<<<<<<<<<<<
>                                                          <
>     SKY/WX - Sky Condition/Present Weather               <
>     TMP    - Temperature in Fahrenheit                   <
>     DP     - Dew Point in Fahrenheit                     <
>     RH     - Relative Humidity in Percent                <
>     WIND   - Direction (from) and Speed in MPH           <
>     PRES   - Mean Sea Level Pressure (inches of Hg)      <
>     WCI    - Wind Chill Index                            <
>     VSB    - VISIBILITY IN MILES                         <
>     HX     - HEAT INDEX                                  <
>     TC     - TEMPERATURE IN CELSIUS                      <
>     VRB    - VARIABLE WIND DIRECTION                     <
>                                                          <
>>>>>>>>>>>>>>>>>>>>>>>>>>>> KEY <<<<<<<<<<<<<<<<<<<<<<<<<<<



USA.gov is the U.S. government's official web portal to all federal, state and local government web resources and services.